India Forums Logo

Punar Vivah

India Forums > Forum Index > Punar Vivah
Punar Vivah is based on the concept of remarriage in which couple also has kids with their previous marriage. This show represents a love story with a contrast.
...
<< | 12 | 13 | 14 | 15 | 16 | 17 | 18 | 19 | 20 | 21 | 22 | 23 | 24 | 25 | 26 | 27 | 28 | 29 | 30 | ... >>
TIDTopic SubjectStart DateLast Entry
2908816*PV WU(29 march 2012)*3/29/2012 12:00:40 PM3/30/2012 7:59:09 AM
2908820Unspoken--Yash understood Arti3/29/2012 12:03:11 PM3/29/2012 10:28:12 PM
2908822hats off to cv's3/29/2012 12:04:00 PM3/29/2012 1:19:01 PM
2908824ALL IS WELL With ARYA-Sangeeth shuru3/29/2012 12:06:11 PM3/29/2012 10:58:36 PM
290884829th Mar Punar Vivah Video+Precap+SBB+SBS WO/DL3/29/2012 12:19:43 PM3/29/2012 10:06:03 PM
29090051 Minute for CANCER AWARENESS - can u CONTRIBUTE?3/29/2012 2:43:28 PM3/29/2012 2:43:28 PM
2909022Aarti will fall first for Yash3/29/2012 2:59:20 PM3/29/2012 8:46:02 PM
2909045Should one continue in a loveless marriage3/29/2012 3:41:12 PM3/30/2012 8:25:22 PM
2909089Aarti and yash3/29/2012 4:52:43 PM3/29/2012 7:55:17 PM
2909092Aarti and yash3/29/2012 4:56:22 PM3/29/2012 8:05:03 PM
2909132This parshant...3/29/2012 7:23:47 PM3/29/2012 7:51:17 PM
2909168Big Blooper about Prashant Aarti's Name on Temple3/29/2012 8:46:06 PM3/30/2012 10:19:14 AM
2909176Shame on you Aarti...3/29/2012 9:13:20 PM3/30/2012 2:54:58 PM
2909190Please vote for GC3/29/2012 9:42:16 PM3/30/2012 3:49:26 AM
2909192Arya pics3/29/2012 9:45:16 PM3/30/2012 10:20:49 AM
2909218where??? & when????3/29/2012 10:23:47 PM3/29/2012 10:23:47 PM
2909246Puner Vivah episode (03/29/2012)... With Eva3/29/2012 10:57:02 PM3/30/2012 12:28:35 PM
2909251Some pics of Gurmeet3/29/2012 10:59:39 PM3/30/2012 11:24:56 AM
2909374~:))~Happy Birthday Ravjot~:))~3/30/2012 1:48:51 AM3/30/2012 11:37:36 AM
2909458yash have to do this3/30/2012 3:15:13 AM3/30/2012 10:06:09 AM
2909459Sangeet xcited!!! hUM SAATH SAATH HAI IN PV3/30/2012 3:15:32 AM3/30/2012 2:45:04 PM
290947630th March Punar VivahShadi Spl SBB Segment WO/DL3/30/2012 3:31:16 AM3/31/2012 11:24:57 AM
29095013 New Promos & SBB:AarYa's Sangeet-Wedding dances3/30/2012 3:42:45 AM3/30/2012 4:15:37 PM
2909548competition is on3/30/2012 4:07:17 AM3/30/2012 2:21:25 PM
2909650Guys comment on all Tagged articles and videos3/30/2012 5:03:35 AM3/30/2012 12:55:45 PM
2909693Bua in precap!3/30/2012 5:20:24 AM3/30/2012 11:28:51 AM
2909704snow white scene!3/30/2012 5:26:32 AM3/30/2012 1:23:59 PM
2909737new FF khamoshi updated29/07/20123/30/2012 6:08:54 AM11/17/2012 11:20:29 AM
2909816Punar Vivah-Zee Tv's popular show3/30/2012 7:23:47 AM3/31/2012 3:15:42 PM
2909848\|/ Happy Shri Ram Navami! \|/3/30/2012 7:41:00 AM3/31/2012 1:10:04 PM
2909885Once again love3/30/2012 8:05:39 AM3/30/2012 11:26:15 AM
2909890How many of PVians are from south india?3/30/2012 8:11:55 AM4/3/2012 9:50:18 AM
2910144hw rudeee...3/30/2012 9:54:15 AM3/31/2012 2:05:17 PM
291023730/3AnalysisUnit:Sangeet turns Nightmare for Aarti3/30/2012 10:38:25 AM4/2/2012 10:46:43 AM
2910247SRK in PV to bless Yash Aarti3/30/2012 10:44:46 AM4/1/2012 2:39:54 AM
2910286My thoughts of Prashant and Aarti3/30/2012 11:01:55 AM3/30/2012 11:52:52 AM
2910355Rocking, Speechless, Stunning Sangeeth3/30/2012 11:39:27 AM3/31/2012 2:03:53 AM
2910359today episode ws awesom3/30/2012 11:41:08 AM3/30/2012 2:09:06 PM
2910389did arti tell the truth to yash3/30/2012 12:03:45 PM3/30/2012 2:12:32 PM
2910422PV Written Update [30/3/2012]3/30/2012 12:28:20 PM4/1/2012 11:57:01 PM
2910447TOI: Celebs talk of Intimate scenes-GC3/30/2012 12:50:06 PM4/7/2012 1:13:45 AM
2910449CVs Killed it Today..!!3/30/2012 12:51:29 PM3/31/2012 8:27:10 AM
2910454Today's Show3/30/2012 12:55:01 PM3/30/2012 2:06:21 PM
2910482Second time lucky: Divorce and Remarriage3/30/2012 1:17:10 PM3/30/2012 2:08:30 PM
2910504Ur reactions?3/30/2012 1:41:53 PM3/30/2012 2:47:34 PM
2910514personality3/30/2012 1:56:11 PM3/30/2012 2:30:47 PM
2910519HEISTATION3/30/2012 2:00:02 PM3/30/2012 2:00:02 PM
2910528PV aur hum (News)30/3/20123/30/2012 2:10:25 PM3/31/2012 3:19:23 PM
2910533MISUNDERSTAND GET AWAY FROM ARTIS MIND3/30/2012 2:15:49 PM3/30/2012 2:15:49 PM
2910547Aarti's Behaviour at the Mandir3/30/2012 2:30:20 PM3/30/2012 4:10:50 PM
2910580GCians WHERE ARE YOU ALL!!!?3/30/2012 3:23:01 PM3/30/2012 7:14:54 PM
2910607Ansh!3/30/2012 3:56:19 PM3/30/2012 9:22:22 PM
2910621Bomb-Blasting Ending of Epi3/30/2012 4:18:34 PM4/2/2012 9:09:34 AM
2910666GC's performance pictures at Femina Miss India3/30/2012 5:47:17 PM3/31/2012 12:24:42 PM
2910685what song was it ?3/30/2012 7:06:09 PM3/31/2012 1:03:06 PM
2910691Pray3/30/2012 7:17:15 PM3/30/2012 10:59:53 PM
2910695OMG!!!!3/30/2012 7:22:35 PM3/30/2012 11:03:53 PM
2910744Arpita or Aarti3/30/2012 8:17:21 PM3/31/2012 5:35:00 PM
2910759Did truth come out or not?3/30/2012 8:32:04 PM3/31/2012 11:42:47 AM
2910774Hi Am New Here3/30/2012 8:58:17 PM4/2/2012 4:03:04 AM
2910834Guru performing on Femina Miss India 2012 on Sony3/30/2012 10:57:12 PM3/31/2012 1:40:55 AM
2910837what is your take?3/30/2012 10:59:21 PM3/30/2012 10:59:21 PM
2910844FMI is going 2 telecasted on 15th april3/30/2012 11:08:55 PM3/31/2012 5:05:32 PM
2910851Cast On the sets of Punar Vivah3/30/2012 11:16:58 PM3/30/2012 11:19:34 PM
2910855How many of you don't know Hindi but watching PV?3/30/2012 11:20:50 PM7/5/2012 9:07:59 AM
2910920Offscreen picrures of PV3/31/2012 12:29:28 AM3/31/2012 10:29:50 AM
2910971Guru Kratika New Pics from Mittals party3/31/2012 1:24:13 AM4/4/2012 1:14:25 AM
2911085SBS:GC dance with Nargis:Vid+Written+PicUpdt Pg1-23/31/2012 3:18:47 AM3/31/2012 9:44:31 PM
2911107Gurmeet's expressions in the Bachelors party3/31/2012 3:36:35 AM4/1/2012 5:56:17 AM
2911118Fun Poll : Blush Blush Blush ;)3/31/2012 3:57:14 AM4/3/2012 2:43:29 PM
2911132one question?????3/31/2012 4:09:14 AM4/1/2012 3:52:35 AM
2911148TOI : No sex please, we're Indians!3/31/2012 4:24:15 AM3/31/2012 11:23:23 PM
2911150TOI : Gurmeet Choudhary at Sumeet Mittal's party3/31/2012 4:27:57 AM3/31/2012 11:54:14 AM
291115731st SBS:Gurmeet dancing with Nargis HD Video Link3/31/2012 4:38:03 AM4/1/2012 3:40:24 PM
2911245TOI-TV stars shake a leg with Nargis Fakhri3/31/2012 6:25:16 AM4/2/2012 12:22:16 AM
<< | 12 | 13 | 14 | 15 | 16 | 17 | 18 | 19 | 20 | 21 | 22 | 23 | 24 | 25 | 26 | 27 | 28 | 29 | 30 | ... >>